EN

Hourly Weather Dzinaga

Today, 28 November, Saturday

Time Temperature Precipitation Wind Pressure Humidity
00:00 -2°C° 0 mm 3 mps 636 mmHg 36%
01:00 -2°C° 0 mm 3 mps 636 mmHg 36%
02:00 -2°C° 0 mm 2 mps 636 mmHg 36%
03:00 -2°C° 0 mm 2 mps 636 mmHg 37%
04:00 -2°C° 0 mm 2 mps 636 mmHg 36%
05:00 -1°C° 0 mm 2 mps 636 mmHg 36%
06:00 -1°C° 0 mm 2 mps 636 mmHg 35%
07:00 +1°C° 0 mm 2 mps 636 mmHg 38%
08:00 +2°C° 0 mm 2 mps 636 mmHg 41%
09:00 +3°C° 0 mm 2 mps 637 mmHg 46%
10:00 +4°C° 0 mm 2 mps 637 mmHg 50%
11:00 +5°C° 0 mm 2 mps 637 mmHg 55%
12:00 +6°C° 0 mm 2 mps 637 mmHg 59%
13:00 +5°C° 0 mm 2 mps 636 mmHg 57%
14:00 +5°C° 0 mm 2 mps 636 mmHg 56%
15:00 +2°C° 0 mm 3 mps 635 mmHg 52%
16:00 +1°C° 0 mm 3 mps 635 mmHg 45%
17:00 0°C° 0 mm 3 mps 634 mmHg 37%
18:00 -1°C° 0 mm 3 mps 634 mmHg 30%
19:00 -1°C° 0 mm 3 mps 634 mmHg 29%
20:00 -1°C° 0 mm 3 mps 634 mmHg 28%
21:00 -1°C° 0 mm 3 mps 634 mmHg 26%
22:00 -1°C° 0 mm 3 mps 634 mmHg 26%
23:00 -1°C° 0 mm 3 mps 634 mmHg 26%

Tomorrow, 29 November, Sunday

Time Temperature Precipitation Wind Pressure Humidity
00:00 -1°C° 0 mm 3 mps 634 mmHg 26%
01:00 -1°C° 0 mm 3 mps 634 mmHg 28%
02:00 -1°C° 0 mm 3 mps 634 mmHg 29%
03:00 -1°C° 0 mm 3 mps 635 mmHg 31%
04:00 -1°C° 0 mm 2 mps 634 mmHg 35%
05:00 +1°C° 0 mm 2 mps 634 mmHg 39%
06:00 +1°C° 0 mm 2 mps 634 mmHg 43%
07:00 +2°C° 0 mm 2 mps 635 mmHg 47%
08:00 +4°C° 0 mm 1 mps 635 mmHg 51%
09:00 +5°C° 0 mm 1 mps 635 mmHg 55%
10:00 +6°C° 0 mm 1 mps 635 mmHg 58%
11:00 +6°C° 0 mm 0 mps 635 mmHg 61%
12:00 +6°C° 0 mm 0 mps 635 mmHg 64%
13:00 +6°C° 0 mm 0 mps 635 mmHg 67%
14:00 +5°C° 0 mm 0 mps 635 mmHg 69%
15:00 +5°C° 0 mm 0 mps 634 mmHg 71%
16:00 +5°C° 0 mm 1 mps 634 mmHg 68%
17:00 +3°C° 0 mm 1 mps 634 mmHg 65%
18:00 +1°C° 0 mm 2 mps 634 mmHg 62%
19:00 +1°C° 0 mm 2 mps 634 mmHg 57%
20:00 +1°C° 0 mm 2 mps 634 mmHg 53%
21:00 +1°C° 0 mm 2 mps 634 mmHg 48%
22:00 +1°C° 0 mm 2 mps 634 mmHg 48%
23:00 +2°C° 0 mm 1 mps 634 mmHg 48%

Day after tomorrow, 30 November, Monday

Time Temperature Precipitation Wind Pressure Humidity
00:00 +1°C° 0 mm 1 mps 633 mmHg 47%
01:00 +1°C° 0 mm 1 mps 633 mmHg 47%
02:00 +1°C° 0 mm 1 mps 633 mmHg 46%
03:00 +1°C° 0 mm 1 mps 633 mmHg 45%
04:00 -1°C° 0 mm 2 mps 633 mmHg 45%
05:00 -1°C° 0 mm 2 mps 633 mmHg 44%
06:00 -1°C° 0 mm 2 mps 632 mmHg 44%
07:00 +1°C° 0 mm 2 mps 633 mmHg 46%
08:00 +2°C° 0 mm 1 mps 633 mmHg 49%
09:00 +3°C° 0 mm 1 mps 633 mmHg 51%
10:00 +4°C° 0 mm 1 mps 633 mmHg 54%
11:00 +5°C° 0 mm 1 mps 633 mmHg 57%
12:00 +6°C° 0 mm 1 mps 633 mmHg 59%
13:00 +5°C° 0 mm 1 mps 632 mmHg 64%
14:00 +5°C° 0 mm 1 mps 632 mmHg 69%
15:00 +4°C° 0 mm 1 mps 632 mmHg 73%
16:00 +3°C° 0 mm 1 mps 632 mmHg 69%
17:00 +1°C° 0 mm 1 mps 631 mmHg 65%
18:00 0°C° 0 mm 1 mps 631 mmHg 62%
19:00 0°C° 0 mm 1 mps 631 mmHg 60%
20:00 -2°C° 0 mm 2 mps 631 mmHg 58%
21:00 -2°C° 0 mm 2 mps 631 mmHg 55%
22:00 -3°C° 0 mm 2 mps 631 mmHg 58%
23:00 -3°C° 0 mm 2 mps 631 mmHg 61%

1 December, Tuesday

Time Temperature Precipitation Wind Pressure Humidity
00:00 -3°C° 0 mm 2 mps 630 mmHg 63%
01:00 -3°C° 0 mm 2 mps 630 mmHg 66%
02:00 -3°C° 0 mm 2 mps 630 mmHg 69%
03:00 -3°C° 0 mm 2 mps 630 mmHg 71%
04:00 -3°C° 0 mm 2 mps 630 mmHg 72%
05:00 -3°C° 0 mm 2 mps 630 mmHg 74%
06:00 -3°C° 0 mm 2 mps 630 mmHg 75%
07:00 -2°C° 0 mm 2 mps 631 mmHg 75%
08:00 +1°C° 0 mm 1 mps 631 mmHg 74%
09:00 +2°C° 0 mm 1 mps 632 mmHg 74%
10:00 +2°C° 0 mm 1 mps 632 mmHg 76%
11:00 +3°C° 0 mm 1 mps 632 mmHg 77%
12:00 +4°C° 0 mm 1 mps 632 mmHg 79%
13:00 +4°C° 0 mm 1 mps 632 mmHg 82%
14:00 +3°C° 0 mm 1 mps 632 mmHg 85%
15:00 +3°C° 0 mm 1 mps 632 mmHg 89%
16:00 +1°C° 0 mm 1 mps 631 mmHg 86%
17:00 0°C° 0 mm 1 mps 631 mmHg 83%
18:00 -1°C° 0 mm 1 mps 631 mmHg 80%
19:00 -1°C° 0 mm 1 mps 632 mmHg 78%
20:00 -1°C° 0 mm 1 mps 632 mmHg 75%
21:00 -3°C° 0 mm 2 mps 632 mmHg 73%
22:00 -4°C° 0 mm 2 mps 632 mmHg 72%
23:00 -4°C° 0 mm 2 mps 632 mmHg 71%

2 December, Wednesday

Time Temperature Precipitation Wind Pressure Humidity
00:00 -4°C° 0 mm 2 mps 632 mmHg 70%
01:00 -4°C° 0 mm 2 mps 632 mmHg 70%
02:00 -4°C° 0 mm 2 mps 632 mmHg 70%
03:00 -4°C° 0 mm 2 mps 632 mmHg 69%
04:00 -4°C° 0 mm 2 mps 632 mmHg 68%
05:00 -4°C° 0 mm 2 mps 632 mmHg 67%
06:00 -2°C° 0 mm 1 mps 632 mmHg 66%
07:00 -1°C° 0 mm 1 mps 633 mmHg 66%
08:00 0°C° 0 mm 1 mps 633 mmHg 65%
09:00 +1°C° 0 mm 1 mps 634 mmHg 65%
10:00 +2°C° 0 mm 1 mps 634 mmHg 66%
11:00 +3°C° 0 mm 1 mps 634 mmHg 68%
12:00 +4°C° 0 mm 1 mps 634 mmHg 70%
13:00 +3°C° 0 mm 1 mps 634 mmHg 74%
14:00 +3°C° 0 mm 1 mps 633 mmHg 78%
15:00 +1°C° 0 mm 0 mps 633 mmHg 83%
16:00 +1°C° 0 mm 1 mps 633 mmHg 78%
17:00 0°C° 0 mm 1 mps 633 mmHg 73%
18:00 -2°C° 0 mm 1 mps 632 mmHg 68%
19:00 -2°C° 0 mm 1 mps 633 mmHg 67%
20:00 -2°C° 0 mm 1 mps 633 mmHg 66%
21:00 -2°C° 0 mm 1 mps 633 mmHg 64%
22:00 -2°C° 0 mm 1 mps 633 mmHg 64%
23:00 -4°C° 0 mm 2 mps 633 mmHg 64%

3 December, Thursday

Time Temperature Precipitation Wind Pressure Humidity
00:00 -4°C° 0 mm 2 mps 633 mmHg 64%
01:00 -4°C° 0 mm 2 mps 633 mmHg 65%
02:00 -4°C° 0 mm 2 mps 633 mmHg 67%
03:00 -4°C° 0 mm 2 mps 633 mmHg 68%
04:00 -2°C° 0 mm 1 mps 633 mmHg 66%
05:00 -2°C° 0 mm 1 mps 633 mmHg 65%
06:00 -2°C° 0 mm 1 mps 633 mmHg 64%
07:00 -1°C° 0 mm 1 mps 634 mmHg 63%
08:00 0°C° 0 mm 1 mps 635 mmHg 62%
09:00 +1°C° 0 mm 1 mps 635 mmHg 61%
10:00 +2°C° 0 mm 1 mps 635 mmHg 64%
11:00 +3°C° 0 mm 1 mps 635 mmHg 68%
12:00 +4°C° 0 mm 1 mps 635 mmHg 72%
13:00 +3°C° 0 mm 1 mps 635 mmHg 76%
14:00 +3°C° 0 mm 1 mps 635 mmHg 81%
15:00 +2°C° 0 mm 1 mps 634 mmHg 86%
16:00 +1°C° 0 mm 1 mps 634 mmHg 81%
17:00 0°C° 0 mm 1 mps 634 mmHg 75%
18:00 -1°C° 0 mm 1 mps 634 mmHg 70%
19:00 -1°C° 0 mm 1 mps 634 mmHg 69%
20:00 -1°C° 0 mm 1 mps 634 mmHg 68%
21:00 -1°C° 0 mm 1 mps 634 mmHg 67%
22:00 -3°C° 0 mm 2 mps 634 mmHg 71%
23:00 -3°C° 0 mm 2 mps 634 mmHg 75%
Show more